Tracking 31027 objects as of 19-Jul-2025
HD Live streaming from Space Station
objects crossing your sky now

PSLV R/B

Track PSLV R/B now!
10-day predictions


NORAD ID: 39093
Int'l Code: 2013-009H
Perigee: 706.9 km
Apogee: 769.0 km
Inclination: 98.1 °
Period: 99.4 minutes
Semi major axis: 7108 km
RCS: 7.397 m2 (large)
Launch date: February 25, 2013
Source: India (IND)
Launch site: SRIHARIKOTA (SRI)

Note: This is a ROCKET BODY
Your satellite tracking list
Your tracking list is empty




NASA's NSSDC Master Catalog

Two Line Element Set (TLE):
1 39093U 13009H   25199.57481238  .00000194  00000-0  62501-4 0  9993
2 39093  98.0853  52.0805 0043673 345.1455  14.8453 14.48428698654395
Source of the keplerian elements: AFSPC